Location: Unspecified
(0.0000°N, 0.0000°E)
Time: 11:21:20
(UTC+00:00)

Vanguard 2 Rocket - Pass Details

Date: 14 October 2022
Orbit: 555 x 3321 km, 32.9° (Epoch: 29 November)

Event Time Altitude Azimuth Distance (km) Brightness Sun altitude
Rises 20:19:45 0° 289° (WNW) 7,209 12.2 -38.0°
Reaches altitude 10° 20:27:24 10° 305° (NW) 6,274 11.5 -39.8°
Maximum altitude 20:39:36 19° 344° (NNW) 5,291 10.7 -42.8°
Enters shadow 20:46:21 15° 9° (N) 5,230 10.5 -44.5°
